Weather History for Albert Lea, MN

Change the Weather History Date:

Tuesday, January 22, 2013

  Actual Average Record
Temperature  
Mean Temperature 4 °F -  
Max Temperature 12 °F 20 °F 46 °F (2002)
Min Temperature -5 °F 6 °F -11 °F (2014)
Degree Days  
Heating Degree Days 62    
Moisture  
Dew Point -5 °F    
Average Humidity 73    
Maximum Humidity 85    
Minimum Humidity 61    
Precipitation  
Precipitation 0.00 in - - ()
Sea Level Pressure  
Sea Level Pressure 30.27 in    
Wind  
Wind Speed 5 mph (WNW)    
Max Wind Speed 9 mph    
Max Gust Speed -    
Visibility 10 miles    
Events      
Averages and records for this station are not official NWS values.
T = Trace of Precipitation, MM = Missing Value Source: NWS Daily Summary

Daily Weather History Graph

Daily Weather History Graph

Search for Another Location

Airport:

Trip Planner

Search our weather history database for the weather conditions in past years. The results will help you decide how hot, cold, wet, or windy it might be!

Date:

Astronomy

Jan. 22, 2013 Rise Set
Actual Time 7:39 AM CST 5:11 PM CST
Civil Twilight 7:07 AM CST 5:42 PM CST
Nautical Twilight 6:32 AM CST 6:17 PM CST
Astronomical Twilight 5:58 AM CST 6:51 PM CST
Moon 1:33 PM CST (1/22) 4:02 AM CST (1/22)
Length of Visible Light 10h 34m
Length of Day
9h 32m
Waxing Gibbous, 83% of the Moon is Illuminated
Jan 22
Waxing Gibbous
Jan 26
Full
Feb 3
Last Quarter
Feb 10
New
Feb 17
First Quarter

Hourly Weather History & Observations

Time (CST) Temp. Windchill Dew Point Humidity Pressure Visibility Wind Dir Wind Speed Gust Speed Precip Events Conditions
12:11 AM -0.4 °F -12.0 °F -5.8 °F 78% 30.25 in 10.0 mi WNW 5.8 mph - N/A   Clear
12:31 AM -0.4 °F -10.4 °F -5.8 °F 78% 30.26 in 10.0 mi West 4.6 mph - N/A   Clear
12:51 AM -0.4 °F -10.4 °F -5.8 °F 78% 30.26 in 10.0 mi WNW 4.6 mph - N/A   Clear
1:11 AM -2.2 °F -12.5 °F -5.8 °F 85% 30.26 in 10.0 mi WNW 4.6 mph - N/A   Clear
1:31 AM -2.2 °F -12.5 °F -5.8 °F 85% 30.27 in 10.0 mi WNW 4.6 mph - N/A   Clear
1:51 AM -2.2 °F -14.2 °F -5.8 °F 85% 30.28 in 10.0 mi WNW 5.8 mph - N/A   Clear
2:11 AM -2.2 °F -10.4 °F -5.8 °F 85% 30.28 in 10.0 mi WNW 3.5 mph - N/A   Clear
2:51 AM -2.2 °F -12.5 °F -5.8 °F 85% 30.28 in 10.0 mi WNW 4.6 mph - N/A   Clear
3:11 AM -2.2 °F -12.5 °F -7.6 °F 78% 30.28 in 10.0 mi WNW 4.6 mph - N/A   Clear
3:31 AM -2.2 °F -14.2 °F -7.6 °F 78% 30.28 in 10.0 mi WNW 5.8 mph - N/A   Clear
3:51 AM -2.2 °F -15.6 °F -7.6 °F 78% 30.28 in 10.0 mi WNW 6.9 mph - N/A   Clear
4:11 AM -2.2 °F -15.6 °F -7.6 °F 78% 30.27 in 10.0 mi WNW 6.9 mph - N/A   Clear
4:30 AM -4.0 °F -17.8 °F -9.4 °F 78% 30.27 in 10.0 mi NW 6.9 mph - N/A   Clear
4:51 AM -4.0 °F -16.3 °F -9.4 °F 78% 30.27 in 10.0 mi WNW 5.8 mph - N/A   Clear
5:11 AM -5.8 °F -18.4 °F -9.4 °F 84% 30.28 in 10.0 mi WNW 5.8 mph - N/A   Clear
5:31 AM -5.8 °F -16.7 °F -11.2 °F 77% 30.28 in 10.0 mi WNW 4.6 mph - N/A   Clear
5:51 AM -5.8 °F -16.7 °F -11.2 °F 77% 30.28 in 10.0 mi WNW 4.6 mph - N/A   Clear
6:11 AM -5.8 °F -16.7 °F -11.2 °F 77% 30.28 in 10.0 mi WNW 4.6 mph - N/A   Clear
6:31 AM -5.8 °F -16.7 °F -11.2 °F 77% 30.29 in 10.0 mi WNW 4.6 mph - N/A   Clear
6:51 AM -5.8 °F -16.7 °F -11.2 °F 77% 30.30 in 10.0 mi WNW 4.6 mph - N/A   Clear
7:11 AM -5.8 °F -19.9 °F -11.2 °F 77% 30.30 in 10.0 mi WNW 6.9 mph - N/A   Clear
7:31 AM -5.8 °F -14.5 °F -11.2 °F 77% 30.30 in 10.0 mi WNW 3.5 mph - N/A   Clear
7:51 AM -5.8 °F -18.4 °F -11.2 °F 77% 30.31 in 10.0 mi WNW 5.8 mph - N/A   Clear
8:11 AM -5.8 °F -14.5 °F -11.2 °F 77% 30.30 in 10.0 mi NW 3.5 mph - N/A   Clear
8:31 AM -4.0 °F -14.6 °F -9.4 °F 78% 30.31 in 10.0 mi NW 4.6 mph - N/A   Clear
8:51 AM -5.8 °F -16.7 °F -11.2 °F 77% 30.31 in 10.0 mi WNW 4.6 mph - N/A   Clear
9:31 AM -2.2 °F -14.2 °F -9.4 °F 71% 30.32 in 10.0 mi NW 5.8 mph - N/A   Clear
9:51 AM -2.2 °F -10.4 °F -9.4 °F 71% 30.33 in 10.0 mi NW 3.5 mph - N/A   Clear
10:11 AM -0.4 °F -13.4 °F -9.4 °F 66% 30.33 in 10.0 mi West 6.9 mph - N/A   Clear
10:31 AM -0.4 °F -13.4 °F -9.4 °F 66% 30.33 in 10.0 mi WNW 6.9 mph - N/A   Clear
10:51 AM 1.4 °F -9.9 °F -7.6 °F 66% 30.35 in 10.0 mi WNW 5.8 mph - N/A   Clear
11:11 AM 1.4 °F -11.3 °F -7.6 °F 66% 30.34 in 10.0 mi West 6.9 mph - N/A   Clear
11:31 AM 1.4 °F -11.3 °F -7.6 °F 66% 30.33 in 10.0 mi West 6.9 mph - N/A   Clear
11:51 AM 1.4 °F -11.3 °F -5.8 °F 72% 30.33 in 10.0 mi WNW 6.9 mph - N/A   Clear
12:11 PM 3.2 °F -11.3 °F -7.6 °F 61% 30.32 in 10.0 mi WNW 9.2 mph - N/A   Clear
12:31 PM 3.2 °F -10.3 °F -5.8 °F 66% 30.32 in 10.0 mi West 8.1 mph - N/A   Clear
12:51 PM 3.2 °F -7.8 °F -5.8 °F 66% 30.31 in 10.0 mi NW 5.8 mph - N/A   Clear
1:11 PM 5.0 °F -5.6 °F -4.0 °F 66% 30.30 in 10.0 mi West 5.8 mph - N/A   Clear
1:31 PM 5.0 °F -8.1 °F -4.0 °F 66% 30.29 in 10.0 mi West 8.1 mph - N/A   Clear
1:51 PM 6.8 °F -6.9 °F -4.0 °F 61% 30.28 in 10.0 mi West 9.2 mph - N/A   Clear
2:11 PM 6.8 °F -3.5 °F -2.2 °F 67% 30.29 in 10.0 mi WNW 5.8 mph - N/A   Clear
2:31 PM 6.8 °F -5.9 °F -2.2 °F 67% 30.28 in 10.0 mi West 8.1 mph - N/A   Scattered Clouds
2:51 PM 6.8 °F -3.5 °F -2.2 °F 67% 30.28 in 10.0 mi WNW 5.8 mph - N/A   Mostly Cloudy
3:11 PM 8.6 °F -1.3 °F -2.2 °F 62% 30.28 in 10.0 mi West 5.8 mph - N/A   Mostly Cloudy
3:31 PM 8.6 °F -1.3 °F -2.2 °F 62% 30.28 in 10.0 mi WNW 5.8 mph - N/A   Mostly Cloudy
3:51 PM 8.6 °F -2.6 °F -2.2 °F 62% 30.27 in 10.0 mi West 6.9 mph - N/A   Overcast
4:11 PM 8.6 °F 0.1 °F -2.2 °F 62% 30.26 in 10.0 mi West 4.6 mph - N/A   Overcast
4:31 PM 8.6 °F -1.3 °F -2.2 °F 62% 30.26 in 10.0 mi West 5.8 mph - N/A   Scattered Clouds
4:51 PM 8.6 °F 2.0 °F -2.2 °F 62% 30.26 in 10.0 mi West 3.5 mph - N/A   Clear
5:11 PM 6.8 °F - -2.2 °F 67% 30.27 in 10.0 mi Calm Calm - N/A   Scattered Clouds
5:31 PM 6.8 °F - -2.2 °F 67% 30.26 in 10.0 mi Calm Calm - N/A   Clear
5:51 PM 6.8 °F - -0.4 °F 72% 30.26 in 10.0 mi Calm Calm - N/A   Scattered Clouds
6:11 PM 6.8 °F - -0.4 °F 72% 30.26 in 10.0 mi Calm Calm - N/A   Mostly Cloudy
6:31 PM 6.8 °F - 1.4 °F 79% 30.25 in 10.0 mi Calm Calm - N/A   Overcast
6:51 PM 6.8 °F - -0.4 °F 72% 30.25 in 10.0 mi Calm Calm - N/A   Overcast
7:11 PM 6.8 °F - 1.4 °F 79% 30.25 in 10.0 mi Calm Calm - N/A   Scattered Clouds
7:31 PM 6.8 °F - -0.4 °F 72% 30.25 in 10.0 mi Calm Calm - N/A   Scattered Clouds
7:51 PM 6.8 °F - -0.4 °F 72% 30.24 in 10.0 mi Calm Calm - N/A   Clear
8:11 PM 6.8 °F - 1.4 °F 79% 30.25 in 10.0 mi Calm Calm - N/A   Mostly Cloudy
8:31 PM 6.8 °F - 1.4 °F 79% 30.25 in 10.0 mi Calm Calm - N/A   Overcast
8:51 PM 8.6 °F - 1.4 °F 73% 30.24 in 10.0 mi Calm Calm - N/A   Overcast
9:11 PM 8.6 °F 2.0 °F -0.4 °F 67% 30.23 in 10.0 mi South 3.5 mph - N/A   Overcast
9:31 PM 8.6 °F - 1.4 °F 73% 30.23 in 10.0 mi Calm Calm - N/A   Overcast
9:51 PM 8.6 °F 2.0 °F 1.4 °F 73% 30.23 in 10.0 mi South 3.5 mph - N/A   Overcast
10:11 PM 10.4 °F 4.0 °F 1.4 °F 67% 30.22 in 10.0 mi South 3.5 mph - N/A   Overcast
10:31 PM 10.4 °F - 3.2 °F 73% 30.21 in 10.0 mi Calm Calm - N/A   Overcast
10:51 PM 10.4 °F 4.0 °F 3.2 °F 73% 30.20 in 10.0 mi South 3.5 mph - N/A   Overcast
11:11 PM 10.4 °F 4.0 °F 3.2 °F 73% 30.21 in 10.0 mi South 3.5 mph - N/A   Overcast
11:31 PM 12.2 °F 2.9 °F 3.2 °F 67% 30.21 in 10.0 mi SSW 5.8 mph - N/A   Overcast
11:51 PM 12.2 °F 2.9 °F 5.0 °F 73% 30.20 in 10.0 mi SSW 5.8 mph - N/A   Overcast